EW3883 Weather Reports


time (UTC)temp
C
wind
direction
speed
KPH
gust
KPH
rain 1hr
cm
rain 24hr
cm
rain mn
cm
humidity
%
barometer
mb
20260902212539 36 0 0.0 4.8 0.00 0.00 0.00 55 1017.7
20260902212039 36 0 0.0 4.8 0.00 0.00 0.00 55 1017.8
20260902211555 36 0 0.0 1.6 0.00 0.00 0.00 57 1017.7
20260902211042 36 0 0.0 1.6 0.00 0.00 0.00 56 1017.7
20260902210535 36 131 0.0 1.6 0.00 0.00 0.00 54 1017.8
20260902210055 36 0 0.0 1.6 0.00 0.00 0.00 55 1017.9
20260902205537 37 0 0.0 1.6 0.00 0.00 0.00 52 1017.9
20260902205036 37 154 0.0 1.6 0.00 0.00 0.00 54 1017.9
20260902204603 37 0 0.0 4.8 0.00 0.00 0.00 53 1017.8
20260902204036 37 0 0.0 4.8 0.00 0.00 0.00 53 1017.8
20260902203540 38 71 0.0 1.6 0.00 0.00 0.00 52 1017.9
20260902203058 37 0 0.0 1.6 0.00 0.00 0.00 52 1017.9
20260902202539 37 0 0.0 1.6 0.00 0.00 0.00 52 1017.9
20260902202036 37 0 0.0 1.6 0.00 0.00 0.00 52 1017.9
20260902201554 37 0 0.0 1.6 0.00 0.00 0.00 53 1017.9
20260902201035 37 152 0.0 3.2 0.00 0.00 0.00 54 1018.0
20260902200535 37 0 0.0 3.2 0.00 0.00 0.00 53 1018.0
20260902195537 37 128 0.0 4.8 0.00 0.00 0.00 53 1018.1
20260902195036 37 0 0.0 1.6 0.00 0.00 0.00 55 1018.2
20260902194602 37 0 0.0 4.8 0.00 0.00 0.00 54 1018.2
20260902194036 37 0 0.0 4.8 0.00 0.00 0.00 56 1018.3
20260902193540 37 254 0.0 1.6 0.00 0.00 0.00 53 1018.4
20260902193058 36 0 0.0 1.6 0.00 0.00 0.00 56 1018.5
20260902192538 36 250 0.0 1.6 0.00 0.00 0.00 57 1018.6
20260902192040 36 0 0.0 3.2 0.00 0.00 0.00 57 1018.7
20260902191555 36 0 0.0 3.2 0.00 0.00 0.00 59 1018.7
20260902191038 36 0 0.0 3.2 0.00 0.00 0.00 58 1018.8
20260902190536 36 0 0.0 3.2 0.00 0.00 0.00 57 1018.8
20260902190054 36 0 0.0 1.6 0.00 0.00 0.00 59 1018.8
20260902185536 36 0 0.0 1.6 0.00 0.00 0.00 56 1019.0
20260902185040 36 0 0.0 1.6 0.00 0.00 0.00 55 1018.9
20260902184601 36 235 0.0 4.8 0.00 0.00 0.00 57 1018.9
20260902184036 36 0 0.0 4.8 0.00 0.00 0.00 57 1018.9
20260902183539 36 281 0.0 3.2 0.00 0.00 0.00 55 1018.9
20260902183102 37 0 0.0 1.6 0.00 0.00 0.00 59 1019.0
20260902182536 36 0 0.0 3.2 0.00 0.00 0.00 57 1019.1
20260902182043 36 0 0.0 3.2 0.00 0.00 0.00 54 1019.1
20260902181558 37 119 0.0 3.2 0.00 0.00 0.00 57 1019.1
20260902181035 36 275 0.0 3.2 0.00 0.00 0.00 58 1019.1
20260902180538 36 274 0.0 3.2 0.00 0.00 0.00 57 1019.2
20260902180104 36 267 0.0 3.2 0.00 0.00 0.00 58 1019.2
20260902175536 36 129 0.0 3.2 0.00 0.00 0.00 57 1019.2
20260902175040 36 193 0.0 3.2 0.00 0.00 0.00 56 1019.3
20260902174608 36 96 0.0 3.2 0.00 0.00 0.00 58 1019.3
20260902174039 36 58 0.0 3.2 0.00 0.00 0.00 57 1019.4
20260902173536 36 0 0.0 3.2 0.00 0.00 0.00 55 1019.5
20260902173050 36 0 0.0 3.2 0.00 0.00 0.00 58 1019.5
20260902172536 36 243 0.0 3.2 0.00 0.00 0.00 58 1019.5
20260902172039 36 95 0.0 3.2 0.00 0.00 0.00 60 1019.6
20260902171607 36 219 0.0 1.6 0.00 0.00 0.00 59 1019.6
20260902171042 36 0 0.0 1.6 0.00 0.00 0.00 62 1019.6
20260902170537 36 133 0.0 1.6 0.00 0.00 0.00 64 1019.5
20260902170058 36 134 0.0 4.8 0.00 0.00 0.00 63 1019.7
20260902165538 36 0 0.0 4.8 0.00 0.00 0.00 65 1019.8
20260902165039 35 335 0.0 3.2 0.00 0.00 0.00 64 1019.8
20260902164553 35 57 0.0 4.8 0.00 0.00 0.00 64 1019.9
20260902164035 35 0 0.0 4.8 0.00 0.00 0.00 63 1019.9
20260902163537 35 0 0.0 4.8 0.00 0.00 0.00 64 1019.8
20260902163101 35 0 0.0 3.2 0.00 0.00 0.00 68 1019.9
20260902162539 35 309 0.0 3.2 0.00 0.00 0.00 69 1019.9
20260902162037 34 0 0.0 3.2 0.00 0.00 0.00 69 1020.0
20260902161603 34 0 0.0 3.2 0.00 0.00 0.00 66 1019.9
20260902161039 34 295 0.0 1.6 0.00 0.00 0.00 68 1020.0
20260902160537 33 102 0.0 3.2 0.00 0.00 0.00 70 1020.0
20260902155537 33 0 0.0 3.2 0.00 0.00 0.00 68 1020.1
20260902155038 33 0 0.0 1.6 0.00 0.00 0.00 69 1020.2
20260902154551 33 0 0.0 1.6 0.00 0.00 0.00 72 1020.3
20260902154038 33 0 0.0 3.2 0.00 0.00 0.00 73 1020.2
20260902153537 33 213 0.0 3.2 0.00 0.00 0.00 73 1020.3
20260902153055 33 129 0.0 1.6 0.00 0.00 0.00 71 1020.3
20260902152536 32 296 0.0 1.6 0.00 0.00 0.00 72 1020.3
20260902152037 32 0 0.0 1.6 0.00 0.00 0.00 75 1020.4
20260902151556 32 0 0.0 1.6 0.00 0.00 0.00 75 1020.4
20260902151039 32 0 0.0 1.6 0.00 0.00 0.00 74 1020.4
20260902150538 31 0 0.0 1.6 0.00 0.00 0.00 76 1020.4
20260902150055 31 269 0.0 3.2 0.00 0.00 0.00 74 1020.4
20260902145538 31 240 0.0 3.2 0.00 0.00 0.00 75 1020.4
20260902145036 31 0 0.0 1.6 0.00 0.00 0.00 76 1020.4
20260902144550 31 0 0.0 0.0 0.00 0.00 0.00 76 1020.2
20260902144036 31 0 0.0 0.0 0.00 0.00 0.00 77 1020.3
20260902143536 31 0 0.0 0.0 0.00 0.00 0.00 78 1020.2
20260902143058 31 0 0.0 0.0 0.00 0.00 0.00 79 1020.2
20260902142539 30 0 0.0 0.0 0.00 0.00 0.00 80 1020.2
20260902142039 30 0 0.0 0.0 0.00 0.00 0.00 79 1020.1
20260902141602 30 0 0.0 0.0 0.00 0.00 0.00 80 1020.3
20260902141037 30 0 0.0 0.0 0.00 0.00 0.00 80 1020.2
20260902140536 29 0 0.0 0.0 0.00 0.00 0.00 81 1020.2
20260902140053 29 0 0.0 0.0 0.00 0.00 0.00 82 1020.3
20260902135536 28 0 0.0 0.0 0.00 0.00 0.00 83 1020.4
20260902135037 28 0 0.0 0.0 0.00 0.00 0.00 83 1020.5
20260902134548 28 0 0.0 0.0 0.00 0.00 0.00 84 1020.5
20260902134035 28 0 0.0 0.0 0.00 0.00 0.00 83 1020.4
20260902133539 28 0 0.0 0.0 0.00 0.00 0.00 85 1020.5
20260902133056 28 0 0.0 0.0 0.00 0.00 0.00 86 1020.4
20260902132538 27 0 0.0 0.0 0.00 0.00 0.00 86 1020.4
20260902132037 27 0 0.0 0.0 0.00 0.00 0.00 85 1020.3
20260902131554 27 0 0.0 0.0 0.00 0.00 0.00 86 1020.4
20260902131038 27 0 0.0 0.0 0.00 0.00 0.00 87 1020.4
20260902130538 26 0 0.0 0.0 0.00 0.00 0.00 88 1020.3
20260902130052 26 0 0.0 0.0 0.00 0.00 0.00 89 1020.3
20260902125537 26 0 0.0 0.0 0.00 0.00 0.00 89 1020.2
20260902125036 26 0 0.0 0.0 0.00 0.00 0.00 89 1020.2
20260902124604 25 0 0.0 0.0 0.00 0.00 0.00 91 1020.1
20260902124036 25 0 0.0 0.0 0.00 0.00 0.00 91 1020.2
20260902123540 25 0 0.0 0.0 0.00 0.00 0.00 91 1020.2
20260902123059 25 0 0.0 0.0 0.00 0.00 0.00 91 1020.1
20260902122538 25 0 0.0 0.0 0.00 0.00 0.00 92 1020.0
20260902122038 25 0 0.0 0.0 0.00 0.00 0.00 92 1020.0
20260902121607 25 0 0.0 0.0 0.00 0.00 0.00 92 1020.0
20260902121037 24 0 0.0 0.0 0.00 0.00 0.00 93 1019.9
20260902120537 24 0 0.0 0.0 0.00 0.00 0.00 93 1019.8
20260902120110 23 0 0.0 0.0 0.00 0.00 0.00 94 1019.8
20260902115541 23 0 0.0 0.0 0.00 0.00 0.00 95 1019.7
20260902115036 23 0 0.0 0.0 0.00 0.00 0.00 96 1019.7
20260902114616 23 0 0.0 0.0 0.00 0.00 0.00 95 1019.6
20260902114037 23 0 0.0 0.0 0.00 0.00 0.00 95 1019.6
20260902113537 23 0 0.0 0.0 0.00 0.00 0.00 95 1019.6
20260902113100 23 0 0.0 0.0 0.00 0.00 0.00 95 1019.6
20260902112538 23 0 0.0 0.0 0.00 0.00 0.00 95 1019.6
20260902112040 23 0 0.0 0.0 0.00 0.00 0.00 95 1019.4
20260902111600 23 0 0.0 0.0 0.00 0.00 0.00 95 1019.3
20260902111035 23 0 0.0 0.0 0.00 0.00 0.00 95 1019.4
20260902110536 23 0 0.0 0.0 0.00 0.00 0.00 95 1019.4
20260902110110 23 0 0.0 0.0 0.00 0.00 0.00 95 1019.4
20260902105539 23 0 0.0 0.0 0.00 0.00 0.00 95 1019.4
20260902105039 23 0 0.0 0.0 0.00 0.00 0.00 95 1019.4
20260902104557 23 0 0.0 0.0 0.00 0.00 0.00 95 1019.5
20260902104039 23 0 0.0 0.0 0.00 0.00 0.00 95 1019.6
20260902103542 23 0 0.0 0.0 0.00 0.00 0.00 95 1019.5
20260902103116 23 0 0.0 0.0 0.00 0.00 0.00 95 1019.5
20260902102539 23 0 0.0 0.0 0.00 0.00 0.00 95 1019.4
20260902102038 23 0 0.0 0.0 0.00 0.00 0.00 95 1019.3
20260902101551 23 0 0.0 0.0 0.00 0.00 0.00 95 1019.4
20260902101039 23 0 0.0 0.0 0.00 0.00 0.00 94 1019.3
20260902100543 23 0 0.0 0.0 0.00 0.00 0.00 94 1019.3
20260902100101 23 0 0.0 0.0 0.00 0.00 0.00 94 1019.2
20260902095538 23 0 0.0 0.0 0.00 0.00 0.00 94 1019.2
20260902095039 23 0 0.0 0.0 0.00 0.00 0.00 95 1019.2
20260902094600 23 0 0.0 0.0 0.00 0.00 0.00 95 1019.3
20260902094039 23 0 0.0 0.0 0.00 0.00 0.00 95 1019.2
20260902093539 23 0 0.0 0.0 0.00 0.00 0.00 95 1019.3
20260902093103 23 0 0.0 0.0 0.00 0.00 0.00 95 1019.3
20260902092539 23 0 0.0 0.0 0.00 0.00 0.00 94 1019.3
20260902092040 23 0 0.0 0.0 0.00 0.00 0.00 94 1019.2
20260902091601 23 0 0.0 0.0 0.00 0.00 0.00 94 1019.2
20260902091039 23 0 0.0 0.0 0.00 0.00 0.00 94 1019.3
20260902090540 23 0 0.0 0.0 0.00 0.00 0.00 94 1019.1
20260902090101 23 0 0.0 0.0 0.00 0.00 0.00 94 1019.2
20260902085538 23 0 0.0 0.0 0.00 0.00 0.00 94 1019.0
20260902085039 23 0 0.0 0.0 0.00 0.00 0.00 94 1019.0
20260902084552 23 0 0.0 0.0 0.00 0.00 0.00 94 1019.0
20260902084039 23 0 0.0 0.0 0.00 0.00 0.00 94 1018.9
20260902083539 23 0 0.0 0.0 0.00 0.00 0.00 94 1018.8
20260902083102 23 0 0.0 0.0 0.00 0.00 0.00 94 1018.7
20260902082539 23 0 0.0 0.0 0.00 0.00 0.00 94 1018.8
20260902082039 23 0 0.0 0.0 0.00 0.00 0.00 93 1018.7
20260902081559 23 0 0.0 0.0 0.00 0.00 0.00 93 1018.6
20260902081040 23 0 0.0 0.0 0.00 0.00 0.00 93 1018.6
20260902080539 23 0 0.0 0.0 0.00 0.00 0.00 93 1018.7
20260902080053 24 0 0.0 0.0 0.00 0.00 0.00 92 1018.6
20260902075537 24 0 0.0 0.0 0.00 0.00 0.00 92 1018.6
20260902075037 24 0 0.0 0.0 0.00 0.00 0.00 92 1018.5
20260902074606 24 0 0.0 0.0 0.00 0.00 0.00 92 1018.6
20260902074040 24 0 0.0 0.0 0.00 0.00 0.00 91 1018.5
20260902073539 24 0 0.0 0.0 0.00 0.00 0.00 91 1018.5
20260902073107 24 0 0.0 0.0 0.00 0.00 0.00 91 1018.6
20260902072538 24 0 0.0 0.0 0.00 0.00 0.00 91 1018.5
20260902072040 24 0 0.0 0.0 0.00 0.00 0.00 90 1018.5
20260902071556 24 0 0.0 0.0 0.00 0.00 0.00 91 1018.5
20260902071040 25 0 0.0 0.0 0.00 0.00 0.00 91 1018.6
20260902070538 25 0 0.0 0.0 0.00 0.00 0.00 90 1018.6
20260902070056 25 0 0.0 0.0 0.00 0.00 0.00 90 1018.6
20260902065540 25 0 0.0 1.6 0.00 0.00 0.00 91 1018.6
20260902065040 25 0 0.0 1.6 0.00 0.00 0.00 91 1018.6
20260902064555 25 0 0.0 0.0 0.00 0.00 0.00 90 1018.6
20260902064041 25 0 0.0 0.0 0.00 0.00 0.00 90 1018.6
20260902063536 25 0 0.0 0.0 0.00 0.00 0.00 90 1018.6
20260902063048 25 0 0.0 0.0 0.00 0.00 0.00 89 1018.6
20260902062540 25 0 0.0 0.0 0.00 0.00 0.00 89 1018.7
20260902062039 25 0 0.0 0.0 0.00 0.00 0.00 89 1018.6
20260902061604 25 0 0.0 0.0 0.00 0.00 0.00 89 1018.7
20260902061042 25 0 0.0 0.0 0.00 0.00 0.00 88 1018.6
20260902060538 25 0 0.0 0.0 0.00 0.00 0.00 88 1018.6
20260902060100 25 0 0.0 0.0 0.00 0.00 0.00 88 1018.7
20260902055536 25 0 0.0 0.0 0.00 0.00 0.00 87 1018.7
20260902055036 25 0 0.0 0.0 0.00 0.00 0.00 87 1018.7
20260902054552 26 0 0.0 0.0 0.00 0.00 0.00 87 1018.7
20260902054039 26 0 0.0 1.6 0.00 0.00 0.00 87 1018.7
20260902053541 26 0 0.0 1.6 0.00 0.00 0.00 87 1018.7
20260902053106 26 0 0.0 0.0 0.00 0.00 0.00 87 1018.6
20260902052540 26 0 0.0 0.0 0.00 0.00 0.00 86 1018.7
20260902052039 26 0 0.0 0.0 0.00 0.00 0.00 86 1018.8
20260902051557 26 0 0.0 0.0 0.00 0.00 0.00 86 1018.8
20260902051042 26 0 0.0 0.0 0.00 0.00 0.00 85 1018.7
20260902050539 26 0 0.0 1.6 0.00 0.00 0.00 85 1018.7
20260902050059 26 0 0.0 1.6 0.00 0.00 0.00 85 1018.8
20260902045538 26 0 0.0 1.6 0.00 0.00 0.00 85 1018.7
20260902045038 26 0 0.0 1.6 0.00 0.00 0.00 85 1018.7
20260902044557 26 0 0.0 1.6 0.00 0.00 0.00 85 1018.7
20260902044039 26 0 0.0 0.0 0.00 0.00 0.00 85 1018.7
20260902043539 26 0 0.0 0.0 0.00 0.00 0.00 85 1018.7
20260902043106 26 0 0.0 0.0 0.00 0.00 0.00 85 1018.7
20260902042541 26 0 0.0 0.0 0.00 0.00 0.00 85 1018.7
20260902042039 26 0 0.0 0.0 0.00 0.00 0.00 85 1018.7
20260902041555 26 0 0.0 0.0 0.00 0.00 0.00 85 1018.8
20260902041035 26 0 0.0 0.0 0.00 0.00 0.00 84 1018.8
20260902040539 26 0 0.0 0.0 0.00 0.00 0.00 84 1018.8
20260902035538 26 0 0.0 0.0 0.00 0.00 0.00 83 1018.7
20260902035039 26 0 0.0 0.0 0.00 0.00 0.00 83 1018.8
20260902034603 26 0 0.0 0.0 0.00 0.00 0.00 83 1018.8
20260902034035 26 0 0.0 0.0 0.00 0.00 0.00 83 1018.8
20260902033536 26 0 0.0 0.0 0.00 0.00 0.00 83 1018.7
20260902033107 26 0 0.0 0.0 0.00 0.00 0.00 83 1018.8
20260902032538 27 0 0.0 0.0 0.00 0.00 0.00 83 1018.7
20260902032036 27 0 0.0 0.0 0.00 0.00 0.00 83 1018.7
20260902031558 27 0 0.0 0.0 0.00 0.00 0.00 82 1018.6
20260902031036 27 0 0.0 0.0 0.00 0.00 0.00 82 1018.6
20260902030537 27 0 0.0 0.0 0.00 0.00 0.00 82 1018.6
20260902030051 27 0 0.0 0.0 0.00 0.00 0.00 82 1018.6
20260902025536 27 0 0.0 0.0 0.00 0.00 0.00 82 1018.6
20260902025038 27 0 0.0 0.0 0.00 0.00 0.00 82 1018.6
20260902024552 27 0 0.0 0.0 0.00 0.00 0.00 82 1018.7
20260902024036 27 0 0.0 0.0 0.00 0.00 0.00 82 1018.7
20260902023535 27 0 0.0 0.0 0.00 0.00 0.00 81 1018.7
20260902023051 27 0 0.0 0.0 0.00 0.00 0.00 81 1018.7
20260902022535 27 0 0.0 0.0 0.00 0.00 0.00 81 1018.7
20260902022039 27 0 0.0 0.0 0.00 0.00 0.00 81 1018.7
20260902021553 27 0 0.0 0.0 0.00 0.00 0.00 81 1018.7
20260902021039 27 0 0.0 0.0 0.00 0.00 0.00 81 1018.6
20260902020539 27 0 0.0 0.0 0.00 0.00 0.00 81 1018.5
20260902020059 27 0 0.0 0.0 0.00 0.00 0.00 81 1018.6
20260902015535 27 0 0.0 0.0 0.00 0.00 0.00 80 1018.6
20260902015035 27 0 0.0 0.0 0.00 0.00 0.00 80 1018.5
20260902014552 27 0 0.0 0.0 0.00 0.00 0.00 79 1018.6
20260902014036 28 0 0.0 0.0 0.00 0.00 0.00 79 1018.5
20260902013541 28 0 0.0 0.0 0.00 0.00 0.00 79 1018.6
20260902013059 28 0 0.0 0.0 0.00 0.00 0.00 79 1018.5
20260902012535 28 0 0.0 0.0 0.00 0.00 0.00 78 1018.4
20260902012040 28 0 0.0 0.0 0.00 0.00 0.00 78 1018.2
20260902011556 28 0 0.0 0.0 0.00 0.00 0.00 78 1018.3
20260902011039 28 0 0.0 0.0 0.00 0.00 0.00 78 1018.2
20260902010536 28 0 0.0 0.0 0.00 0.00 0.00 78 1018.1
20260902010057 28 0 0.0 0.0 0.00 0.00 0.00 78 1018.1
20260902005535 28 0 0.0 0.0 0.00 0.00 0.00 77 1018.1
20260902005037 28 0 0.0 0.0 0.00 0.00 0.00 77 1018.2
20260902004552 28 0 0.0 0.0 0.00 0.00 0.00 77 1018.1
20260902004043 29 0 0.0 0.0 0.00 0.00 0.00 77 1018.0
20260902003539 29 0 0.0 0.0 0.00 0.00 0.00 76 1018.0
20260902003100 29 0 0.0 0.0 0.00 0.00 0.00 75 1018.1
20260902002535 29 0 0.0 0.0 0.00 0.00 0.00 74 1018.0
20260902002035 30 0 0.0 0.0 0.00 0.00 0.00 73 1018.1
20260902001558 30 0 0.0 0.0 0.00 0.00 0.00 72 1018.2
20260902001037 30 0 0.0 0.0 0.00 0.00 0.00 72 1018.1
20260902000540 30 0 0.0 0.0 0.00 0.00 0.00 71 1018.1
20260901235537 31 0 0.0 0.0 0.00 0.00 0.00 69 1018.2
20260901235038 31 0 0.0 0.0 0.00 0.00 0.00 69 1018.2
20260901234613 31 0 0.0 0.0 0.00 0.00 0.00 68 1018.2
20260901234035 31 0 0.0 0.0 0.00 0.00 0.00 68 1018.2
20260901233538 31 0 0.0 0.0 0.00 0.00 0.00 67 1018.3
20260901233104 31 0 0.0 0.0 0.00 0.00 0.00 67 1018.3
20260901232539 31 0 0.0 0.0 0.00 0.00 0.00 66 1018.3
20260901232039 31 0 0.0 0.0 0.00 0.00 0.00 66 1018.4
20260901231554 31 0 0.0 0.0 0.00 0.00 0.00 66 1018.4
20260901231040 32 0 0.0 0.0 0.00 0.00 0.00 66 1018.4
20260901230539 32 0 0.0 0.0 0.00 0.00 0.00 65 1018.4
20260901230052 32 0 0.0 1.6 0.00 0.00 0.00 65 1018.4
20260901225537 32 0 0.0 1.6 0.00 0.00 0.00 64 1018.4
20260901225035 32 0 0.0 1.6 0.00 0.00 0.00 63 1018.4
20260901224601 32 0 0.0 1.6 0.00 0.00 0.00 63 1018.5
20260901224035 32 0 0.0 1.6 0.00 0.00 0.00 63 1018.4
20260901223539 32 0 0.0 1.6 0.00 0.00 0.00 62 1018.4
20260901223055 32 0 0.0 1.6 0.00 0.00 0.00 61 1018.3
20260901222537 33 0 0.0 0.0 0.00 0.00 0.00 61 1018.3
20260901222036 33 0 0.0 1.6 0.00 0.00 0.00 60 1018.4
20260901221554 33 0 0.0 1.6 0.00 0.00 0.00 61 1018.4
20260901221036 33 229 0.0 1.6 0.00 0.00 0.00 60 1018.4
20260901220535 33 0 0.0 1.6 0.00 0.00 0.00 58 1018.4
20260901220113 34 0 0.0 1.6 0.00 0.00 0.00 58 1018.3
20260901215539 34 0 0.0 1.6 0.00 0.00 0.00 57 1018.2
20260901215035 35 108 0.0 1.6 0.00 0.00 0.00 56 1018.4
20260901214557 35 0 0.0 1.6 0.00 0.00 0.00 54 1018.3
20260901214039 35 0 0.0 1.6 0.00 0.00 0.00 54 1018.2
20260901213539 36 0 0.0 1.6 0.00 0.00 0.00 55 1018.2
20260901213054 36 0 0.0 1.6 0.00 0.00 0.00 55 1018.2